User: anonymous   Login
Location: Mount Wilson Observatory
(34.2257°N, 118.0571°W)
Time: 08:51:36
(UTC-07:00)
Language:

ATLAS 3B CENTAUR R/B - Orbit

View from above orbital plane
View from above orbital plane
View from above satellite
View from above satellite

Ground track
Ground track

The orbit data is extracted from the following two-line orbital elements,

1 28118U 03057B   16176.68450670  .00075716  00000-0  11800-2 0  9990
2 28118  28.1438 319.9483 3278804 210.9607 124.8284  8.92049313256957
Epoch (UTC): 24 June 2016 16:25:41
Eccentricity: 0.3278804
inclination: 28.1438°
perigee height: 222 km
apogee height: 6662 km
right ascension of ascending node: 319.9483°
argument of perigee: 210.9607°
revolutions per day: 8.92049313
mean anomaly at epoch: 124.8284°
orbit number at epoch: 25695

The dashed part of the orbit path shows where the satellite is in the earth's shadow,  

DLR